Weather History for Plant City, FL

Change the Weather History Date:

Tuesday, November 13, 2012

  Actual Average Record
Temperature  
Mean Temperature 73 °F -  
Max Temperature 82 °F 79 °F 89 °F (1972)
Min Temperature 64 °F 54 °F 32 °F (1934)
Cooling Degree Days 8    
Growing Degree Days 23 (Base 50)    
Moisture  
Dew Point 62 °F    
Average Humidity 68    
Maximum Humidity 100    
Minimum Humidity 42    
Precipitation  
Precipitation 0.00 in - - ()
Sea Level Pressure  
Sea Level Pressure 30.16 in    
Wind  
Wind Speed 2 mph (NE)    
Max Wind Speed 7 mph    
Max Gust Speed -    
Visibility 9 miles    
Events      
Averages and records for this station are not official NWS values.
T = Trace of Precipitation, MM = Missing Value Source: NWS Daily Summary

Daily Weather History Graph

Daily Weather History Graph

Search for Another Location

Airport:

Trip Planner

Search our weather history database for the weather conditions in past years. The results will help you decide how hot, cold, wet, or windy it might be!

Date:

Astronomy

Nov. 13, 2012 Rise Set
Actual Time 6:49 AM EST 5:36 PM EST
Civil Twilight 6:24 AM EST 6:01 PM EST
Nautical Twilight 5:56 AM EST 6:29 PM EST
Astronomical Twilight 5:28 AM EST 6:57 PM EST
Moon 6:24 AM EST (11/13) 5:30 PM EST (11/13)
Length of Visible Light 11h 37m
Length of Day
10h 47m
Waning Crescent, 0% of the Moon is Illuminated
Nov 13
Waning Crescent
Nov 13
New
Nov 20
First Quarter
Nov 28
Full
Dec 6
Last Quarter

Hourly Weather History & Observations

Time (EST) Temp. Heat Index Dew Point Humidity Pressure Visibility Wind Dir Wind Speed Gust Speed Precip Events Conditions
12:15 AM 68.0 °F - 66.2 °F 94% 30.19 in 10.0 mi Calm Calm - N/A   Clear
12:35 AM 69.8 °F - 64.4 °F 83% 30.19 in 10.0 mi Calm Calm - N/A   Clear
12:55 AM 68.0 °F - 64.4 °F 88% 30.19 in 10.0 mi ENE 3.5 mph - N/A   Mostly Cloudy
1:15 AM 68.0 °F - 68.0 °F 100% 30.18 in 10.0 mi ENE 3.5 mph - N/A   Mostly Cloudy
1:35 AM 68.0 °F - 66.2 °F 94% 30.18 in 10.0 mi Calm Calm - N/A   Scattered Clouds
1:55 AM 66.2 °F - - N/A% 30.17 in 10.0 mi Calm Calm - N/A   Scattered Clouds
2:15 AM 68.0 °F - - N/A% 30.17 in 10.0 mi Calm Calm - N/A   Mostly Cloudy
2:35 AM 68.0 °F - - N/A% 30.17 in 10.0 mi Calm Calm - N/A   Overcast
2:55 AM 68.0 °F - - N/A% 30.17 in 10.0 mi Calm Calm - N/A   Overcast
3:15 AM 66.2 °F - - N/A% 30.17 in 10.0 mi Calm Calm - N/A   Scattered Clouds
3:35 AM 66.2 °F - - N/A% 30.17 in 10.0 mi North 3.5 mph - N/A   Scattered Clouds
3:55 AM 66.2 °F - - N/A% 30.17 in 7.0 mi Calm Calm - N/A   Scattered Clouds
4:15 AM 66.2 °F - - N/A% 30.17 in 10.0 mi NNE 3.5 mph - N/A   Clear
4:35 AM 66.2 °F - - N/A% 30.16 in 7.0 mi Calm Calm - N/A   Clear
4:55 AM 64.4 °F - - N/A% 30.16 in 7.0 mi Calm Calm - N/A   Clear
5:15 AM 66.2 °F - - N/A% 30.17 in 7.0 mi Calm Calm - N/A   Clear
5:35 AM 64.4 °F - - N/A% 30.17 in 4.0 mi NE 3.5 mph - N/A   Haze
5:55 AM 64.4 °F - - N/A% 30.17 in 5.0 mi Calm Calm - N/A   Haze
6:15 AM 64.4 °F - - N/A% 30.17 in 5.0 mi NE 3.5 mph - N/A   Haze
6:35 AM 64.4 °F - - N/A% 30.18 in 7.0 mi Calm Calm - N/A   Clear
6:55 AM 64.4 °F - - N/A% 30.18 in 7.0 mi Calm Calm - N/A   Clear
7:15 AM 64.4 °F - - N/A% 30.19 in 5.0 mi NE 3.5 mph - N/A   Haze
7:35 AM 64.4 °F - - N/A% 30.20 in 5.0 mi NE 3.5 mph - N/A   Haze
7:55 AM 66.2 °F - - N/A% 30.20 in 7.0 mi ENE 3.5 mph - N/A   Clear
8:15 AM 68.0 °F - - N/A% 30.20 in 7.0 mi Calm Calm - N/A   Clear
8:35 AM 69.8 °F - - N/A% 30.20 in 10.0 mi East 3.5 mph - N/A   Scattered Clouds
8:55 AM 71.6 °F - - N/A% 30.21 in 10.0 mi ENE 4.6 mph - N/A   Mostly Cloudy
9:15 AM 75.2 °F - 66.2 °F 73% 30.21 in 10.0 mi Calm Calm - N/A   Overcast
9:35 AM 75.2 °F - 66.2 °F 73% 30.21 in 10.0 mi Calm Calm - N/A   Scattered Clouds
9:55 AM 77.0 °F - 66.2 °F 69% 30.21 in 10.0 mi Calm Calm - N/A   Clear
10:15 AM 78.8 °F - 66.2 °F 65% 30.21 in 10.0 mi ESE 3.5 mph - N/A   Clear
10:35 AM 78.8 °F - 64.4 °F 61% 30.21 in 10.0 mi Calm Calm - N/A   Clear
10:55 AM 78.8 °F - 62.6 °F 57% 30.20 in 10.0 mi NE 4.6 mph - N/A   Clear
11:15 AM 78.8 °F - 62.6 °F 57% 30.20 in 10.0 mi NNE 3.5 mph - N/A   Clear
11:35 AM 80.6 °F 81.1 °F 59.0 °F 48% 30.19 in 10.0 mi Calm Calm - N/A   Clear
11:55 AM 80.6 °F 81.5 °F 60.8 °F 51% 30.18 in 10.0 mi North 3.5 mph - N/A   Scattered Clouds
12:15 PM 80.6 °F 81.5 °F 60.8 °F 51% 30.17 in 10.0 mi Calm Calm - N/A   Scattered Clouds
12:35 PM 80.6 °F 81.1 °F 59.0 °F 48% 30.16 in 10.0 mi NNE 5.8 mph - N/A   Clear
12:55 PM 80.6 °F 81.1 °F 59.0 °F 48% 30.15 in 10.0 mi North 6.9 mph - N/A   Clear
1:15 PM 80.6 °F 81.1 °F 59.0 °F 48% 30.14 in 10.0 mi ENE 5.8 mph - N/A   Clear
1:55 PM 80.6 °F 80.8 °F 57.2 °F 45% 30.13 in 10.0 mi Calm Calm - N/A   Clear
2:15 PM 82.4 °F 82.0 °F 57.2 °F 42% 30.12 in 10.0 mi NNE 3.5 mph - N/A   Clear
2:35 PM 80.6 °F 80.8 °F 57.2 °F 45% 30.12 in 10.0 mi North 3.5 mph - N/A   Clear
2:55 PM 80.6 °F 81.1 °F 59.0 °F 48% 30.12 in 10.0 mi NNE 4.6 mph - N/A   Scattered Clouds
3:15 PM 80.6 °F 81.1 °F 59.0 °F 48% 30.13 in 10.0 mi NNE 4.6 mph - N/A   Scattered Clouds
3:35 PM 80.6 °F 81.1 °F 59.0 °F 48% 30.12 in 10.0 mi NNE 4.6 mph - N/A   Clear
3:55 PM 80.6 °F 81.1 °F 59.0 °F 48% 30.12 in 10.0 mi NNE 4.6 mph - N/A   Clear
4:15 PM 78.8 °F - 59.0 °F 51% 30.12 in 10.0 mi NNE 3.5 mph - N/A   Clear
4:35 PM 78.8 °F - 59.0 °F 51% 30.12 in 10.0 mi NNE 3.5 mph - N/A   Clear
4:55 PM 78.8 °F - 59.0 °F 51% 30.12 in 10.0 mi NNE 3.5 mph - N/A   Clear
5:15 PM 77.0 °F - 60.8 °F 57% 30.12 in 10.0 mi Calm Calm - N/A   Clear
5:35 PM 77.0 °F - 60.8 °F 57% 30.12 in 10.0 mi Calm Calm - N/A   Clear
5:55 PM 73.4 °F - 60.8 °F 65% 30.12 in 10.0 mi Calm Calm - N/A   Clear
6:15 PM 73.4 °F - 62.6 °F 69% 30.13 in 10.0 mi Calm Calm - N/A   Clear
6:35 PM 71.6 °F - 62.6 °F 73% 30.14 in 10.0 mi Calm Calm - N/A   Clear
6:55 PM 71.6 °F - 62.6 °F 73% 30.13 in 10.0 mi NE 3.5 mph - N/A   Clear
7:15 PM 69.8 °F - 62.6 °F 78% 30.14 in 10.0 mi Calm Calm - N/A   Clear
7:35 PM 68.0 °F - 62.6 °F 83% 30.14 in 10.0 mi Calm Calm - N/A   Clear
7:55 PM 68.0 °F - 62.6 °F 83% 30.15 in 10.0 mi ENE 3.5 mph - N/A   Clear
8:15 PM 68.0 °F - 62.6 °F 83% 30.15 in 10.0 mi ENE 3.5 mph - N/A   Clear
8:35 PM 68.0 °F - 62.6 °F 83% 30.15 in 10.0 mi East 5.8 mph - N/A   Clear
8:55 PM 69.8 °F - 62.6 °F 78% 30.16 in 10.0 mi East 4.6 mph - N/A   Clear
9:15 PM 69.8 °F - 62.6 °F 78% 30.16 in 10.0 mi East 3.5 mph - N/A   Clear
9:35 PM 69.8 °F - 62.6 °F 78% 30.16 in 10.0 mi East 3.5 mph - N/A   Clear
9:55 PM 68.0 °F - 62.6 °F 83% 30.17 in 10.0 mi Calm Calm - N/A   Clear
10:15 PM 66.2 °F - 60.8 °F 83% 30.17 in 10.0 mi Calm Calm - N/A   Clear
10:35 PM 66.2 °F - 62.6 °F 88% 30.17 in 10.0 mi Calm Calm - N/A   Clear
10:55 PM 66.2 °F - 64.4 °F 94% 30.17 in 10.0 mi NNW 3.5 mph - N/A   Clear
11:15 PM 66.2 °F - 62.6 °F 88% 30.18 in 10.0 mi NNW 4.6 mph - N/A   Clear
11:35 PM 66.2 °F - 64.4 °F 94% 30.18 in 10.0 mi North 3.5 mph - N/A   Clear
11:55 PM 64.4 °F - 64.4 °F 100% 30.17 in 10.0 mi Calm Calm - N/A   Clear